Location: Nairn
(57.5833°N, 3.8667°W)
Time: 01:48:07
(UTC+00:00)

Spot 1 - Pass Details

Date: 07 August 2020
Orbit: 576 x 776 km, 98.7° (Epoch: 19 September)

Event Time Altitude Azimuth Distance (km) Brightness Sun altitude
Exits shadow 01:06:45 20° 150° (SSE) 1,402 5.4 -15.5°
Maximum altitude 01:09:35 72° 69° (ENE) 622 4.1 -15.4°
Drops below altitude 10° 01:13:40 10° 346° (NNW) 1,906 7.6 -15.3°
Sets 01:15:49 0° 344° (NNW) 2,808 8.5 -15.2°
